TimeEST,TemperatureF,Dew PointF,Humidity,Sea Level PressureIn,VisibilityMPH,Wind Direction,Wind SpeedMPH,Gust SpeedMPH,PrecipitationIn,Events,Conditions,WindDirDegrees,DateUTC
12:55 AM,46.0,37.2,71,30.43,10.0,NNE,13.8,-,N/A,,Scattered Clouds,20,2012-11-18 05:55:00
12:56 AM,46.4,37.4,71,30.43,10.0,NNE,13.8,-,N/A,,Mostly Cloudy,20,2012-11-18 05:56:00
1:12 AM,46.4,37.4,71,30.42,10.0,NNE,13.8,19.6,N/A,,Scattered Clouds,30,2012-11-18 06:12:00
1:55 AM,45.5,37.9,75,30.41,10.0,NNE,12.7,-,N/A,,Mostly Cloudy,20,2012-11-18 06:55:00
2:12 AM,46.4,37.4,71,30.41,10.0,NNE,11.5,-,N/A,,Mostly Cloudy,20,2012-11-18 07:12:00
2:55 AM,44.4,38.3,79,30.41,10.0,NNE,9.2,-,N/A,,Mostly Cloudy,20,2012-11-18 07:55:00
2:56 AM,44.6,39.2,81,30.41,10.0,North,8.1,-,N/A,,Scattered Clouds,10,2012-11-18 07:56:00
3:55 AM,44.4,39.4,82,30.40,10.0,North,10.4,-,N/A,,Scattered Clouds,10,2012-11-18 08:55:00
4:46 AM,46.4,41.0,81,30.41,10.0,North,9.2,-,N/A,,Mostly Cloudy,360,2012-11-18 09:46:00
4:55 AM,45.7,41.0,84,30.41,10.0,North,9.2,-,N/A,,Mostly Cloudy,360,2012-11-18 09:55:00
5:42 AM,46.4,41.0,81,30.41,10.0,North,15.0,20.7,N/A,,Mostly Cloudy,10,2012-11-18 10:42:00
5:55 AM,46.8,41.9,83,30.41,10.0,NNE,11.5,21.9,N/A,,Mostly Cloudy,20,2012-11-18 10:55:00
6:55 AM,46.9,42.4,84,30.41,10.0,NNE,12.7,21.9,N/A,,Overcast,20,2012-11-18 11:55:00
7:55 AM,47.3,43.0,85,30.43,10.0,NNE,15.0,21.9,N/A,,Overcast,20,2012-11-18 12:55:00
8:55 AM,47.7,43.2,84,30.42,10.0,NNE,15.0,20.7,N/A,,Overcast,20,2012-11-18 13:55:00
9:55 AM,48.4,43.5,83,30.43,10.0,North,13.8,23.0,N/A,,Overcast,10,2012-11-18 14:55:00
10:55 AM,49.6,44.1,81,30.42,10.0,NNE,13.8,24.2,N/A,,Overcast,20,2012-11-18 15:55:00
11:31 AM,51.8,44.6,76,30.40,10.0,NNE,13.8,23.0,N/A,,Mostly Cloudy,20,2012-11-18 16:31:00
11:46 AM,51.8,44.6,76,30.39,10.0,NNE,17.3,25.3,N/A,,Mostly Cloudy,30,2012-11-18 16:46:00
11:55 AM,52.0,44.4,75,30.39,10.0,NNE,12.7,21.9,N/A,,Mostly Cloudy,20,2012-11-18 16:55:00
12:26 PM,53.6,44.6,72,30.37,10.0,North,16.1,24.2,N/A,,Mostly Cloudy,10,2012-11-18 17:26:00
12:55 PM,53.1,44.6,73,30.36,10.0,NNE,12.7,26.5,N/A,,Mostly Cloudy,20,2012-11-18 17:55:00
1:55 PM,55.2,44.8,68,30.35,10.0,NNE,12.7,21.9,N/A,,Mostly Cloudy,30,2012-11-18 18:55:00
2:55 PM,55.2,44.4,67,30.33,10.0,NNE,15.0,24.2,N/A,,Mostly Cloudy,20,2012-11-18 19:55:00
3:14 PM,55.4,44.6,67,30.33,10.0,NNE,16.1,21.9,N/A,Rain,Light Rain,20,2012-11-18 20:14:00
3:29 PM,55.4,44.6,67,30.32,10.0,NNE,16.1,24.2,N/A,,Mostly Cloudy,20,2012-11-18 20:29:00
3:55 PM,54.7,45.1,70,30.32,10.0,NNE,15.0,23.0,N/A,Rain,Light Rain,20,2012-11-18 20:55:00
4:10 PM,55.4,44.6,67,30.33,10.0,NNE,13.8,23.0,N/A,,Mostly Cloudy,20,2012-11-18 21:10:00
4:33 PM,53.6,44.6,72,30.33,10.0,NNE,12.7,-,N/A,Rain,Light Rain Showers,20,2012-11-18 21:33:00
4:49 PM,53.6,44.6,72,30.33,10.0,NNE,13.8,20.7,N/A,,Mostly Cloudy,20,2012-11-18 21:49:00
4:55 PM,54.3,44.6,70,30.33,10.0,NNE,16.1,24.2,N/A,,Mostly Cloudy,20,2012-11-18 21:55:00
4:58 PM,53.6,44.6,72,30.33,10.0,NNE,15.0,24.2,N/A,Rain,Light Rain Showers,20,2012-11-18 21:58:00
5:26 PM,53.6,44.6,72,30.33,10.0,NNE,11.5,21.9,N/A,,Mostly Cloudy,20,2012-11-18 22:26:00
5:40 PM,53.6,44.6,72,30.33,10.0,North,15.0,23.0,N/A,Rain,Light Rain Showers,10,2012-11-18 22:40:00
5:55 PM,53.2,45.5,75,30.33,10.0,NNE,12.7,23.0,N/A,Rain,Light Rain Showers,20,2012-11-18 22:55:00
6:16 PM,53.6,44.6,72,30.33,10.0,North,18.4,24.2,N/A,,Mostly Cloudy,10,2012-11-18 23:16:00
6:24 PM,53.6,44.6,72,30.33,10.0,NNE,15.0,24.2,N/A,Rain,Light Rain Showers,20,2012-11-18 23:24:00
6:55 PM,53.1,45.1,74,30.34,10.0,NNE,16.1,21.9,N/A,Rain,Light Rain Showers,20,2012-11-18 23:55:00
7:18 PM,53.6,46.4,77,30.34,10.0,NNE,15.0,25.3,N/A,,Mostly Cloudy,20,2012-11-19 00:18:00
7:55 PM,51.6,46.0,81,30.34,10.0,NNE,18.4,25.3,N/A,,Overcast,20,2012-11-19 00:55:00
8:31 PM,51.8,46.4,82,30.33,10.0,North,16.1,25.3,N/A,,Overcast,10,2012-11-19 01:31:00
8:55 PM,51.8,45.5,79,30.33,10.0,NNE,16.1,25.3,N/A,,Overcast,20,2012-11-19 01:55:00
9:55 PM,52.2,44.8,76,30.32,10.0,NNE,18.4,28.8,N/A,,Mostly Cloudy,20,2012-11-19 02:55:00
10:55 PM,52.5,44.4,74,30.32,10.0,NNE,17.3,21.9,N/A,,Mostly Cloudy,30,2012-11-19 03:55:00
11:55 PM,52.5,44.4,74,30.31,10.0,North,16.1,24.2,N/A,,Overcast,10,2012-11-19 04:55:00